Location: *
(51.8167°N, 12.5000°E)
Time: 15:29:58
(UTC+00:00)

SL-08 RB Rocket - Pass Details

Date: 16 September 2019
Orbit: 646 x 685 km, 97.9° (Epoch: 19 October)

Event Time Altitude Azimuth Distance (km) Brightness Sun altitude
Exits shadow 19:31:33 21° 180° (S) 1,504 5.2 -19.5°
Maximum altitude 19:34:35 66° 258° (WSW) 749 4.0 -19.9°
Drops below altitude 10° 19:39:16 10° 341° (NNW) 2,145 7.0 -20.5°
Sets 19:41:33 0° 344° (NNW) 3,064 7.9 -20.8°
